EW5523 Weather Reports


Display with metric or nautical units.
time (UTC)temp
F
wind
direction
speed
MPH
gust
MPH
rain 1hr
in
rain 24hr
in
rain mn
in
humidity
%
barometer
mb
20260903161542 67 206 0.0 0.0 0.00 0.00 0.00 55 1011.3
20260903160042 68 164 0.0 0.0 0.00 0.00 0.00 54 1011.2
20260903154546 68 174 0.0 1.0 0.00 0.00 0.00 54 1011.2
20260903153046 69 175 0.0 2.0 0.00 0.00 0.00 53 1011.1
20260903151542 70 216 0.0 1.0 0.00 0.00 0.00 52 1011.0
20260903150048 71 152 0.0 3.0 0.00 0.00 0.00 50 1011.0
20260903144543 72 156 0.0 4.0 0.00 0.00 0.00 48 1011.0
20260903143052 73 176 0.0 6.0 0.00 0.00 0.00 48 1011.0
20260903141543 73 180 0.0 2.0 0.00 0.00 0.00 47 1011.0
20260903140037 74 212 0.0 12.0 0.00 0.00 0.00 45 1010.9
20260903134536 75 201 0.0 5.0 0.00 0.00 0.00 46 1010.9
20260903133035 75 216 0.0 6.0 0.00 0.00 0.00 47 1010.9
20260903131534 75 199 0.0 8.0 0.00 0.00 0.00 46 1011.0
20260903130034 75 214 0.0 5.0 0.00 0.00 0.00 47 1011.1
20260903124534 75 218 0.0 5.0 0.00 0.00 0.00 46 1011.0
20260903123031 76 269 0.0 5.0 0.00 0.00 0.00 46 1011.2
20260903121530 75 186 0.0 7.0 0.00 0.00 0.00 47 1011.3
20260903120033 75 209 0.0 9.0 0.00 0.00 0.00 46 1011.3
20260903114531 75 172 0.0 10.0 0.00 0.00 0.00 46 1011.5
20260903113030 75 187 0.0 8.0 0.00 0.00 0.00 45 1011.5
20260903111532 76 200 1.0 9.0 0.00 0.00 0.00 43 1011.7
20260903110026 76 199 0.0 6.0 0.00 0.00 0.00 43 1011.7
20260903104524 76 179 0.0 6.0 0.00 0.00 0.00 42 1011.8
20260903103023 76 170 0.0 6.0 0.00 0.00 0.00 42 1011.9
20260903101527 76 214 2.0 14.0 0.00 0.00 0.00 41 1011.9
20260903100023 76 259 0.0 11.0 0.00 0.00 0.00 42 1011.9
20260903094521 77 131 0.0 10.0 0.00 0.00 0.00 38 1012.0
20260903093032 78 282 0.0 5.0 0.00 0.00 0.00 40 1012.0
20260903091531 77 197 1.0 11.0 0.00 0.00 0.00 40 1012.2
20260903090023 77 230 0.0 6.0 0.00 0.00 0.00 44 1012.3
20260903084528 76 210 0.0 8.0 0.00 0.00 0.00 47 1012.4
20260903083009 76 189 0.0 5.0 0.00 0.00 0.00 50 1012.4
20260903081507 75 228 0.0 7.0 0.00 0.00 0.00 49 1012.6
20260903080003 74 199 0.0 5.0 0.00 0.00 0.00 52 1012.7
20260903074600 74 224 0.0 5.0 0.00 0.00 0.00 55 1012.8
20260903073056 72 161 0.0 4.0 0.00 0.00 0.00 61 1012.9
20260903071557 72 170 0.0 5.0 0.00 0.00 0.00 60 1013.0
20260903070055 72 230 0.0 5.0 0.00 0.00 0.00 59 1013.0
20260903064554 71 243 0.0 2.0 0.00 0.00 0.00 63 1013.0
20260903063051 70 163 0.0 4.0 0.00 0.00 0.00 64 1013.2
20260903061545 69 218 0.0 2.0 0.00 0.00 0.00 66 1013.2
20260903060044 68 164 0.0 3.0 0.00 0.00 0.00 66 1013.1
20260903054539 67 179 0.0 1.0 0.00 0.00 0.00 69 1013.2
20260903053039 67 142 0.0 3.0 0.00 0.00 0.00 68 1013.1
20260903051538 67 210 0.0 2.0 0.00 0.00 0.00 68 1013.1
20260903050043 66 214 0.0 0.0 0.00 0.00 0.00 71 1013.1
20260903044534 65 181 0.0 3.0 0.00 0.00 0.00 72 1013.1
20260903043028 64 189 0.0 1.0 0.00 0.00 0.00 75 1013.3
20260903041525 63 211 0.0 1.0 0.00 0.00 0.00 78 1013.2
20260903040021 61 174 0.0 0.0 0.00 0.00 0.00 81 1013.3
20260903034517 60 218 0.0 1.0 0.00 0.00 0.00 83 1013.4
20260903033016 60 167 0.0 0.0 0.00 0.00 0.00 84 1013.4
20260903031514 59 201 0.0 0.0 0.00 0.00 0.00 85 1013.4
20260903030013 58 185 0.0 0.0 0.00 0.00 0.00 88 1013.5
20260903024513 58 184 0.0 0.0 0.00 0.00 0.00 90 1013.5
20260903023021 57 163 0.0 0.0 0.00 0.00 0.00 91 1013.4
20260903021517 56 163 0.0 0.0 0.00 0.00 0.00 92 1013.5
20260903020040 56 163 0.0 0.0 0.00 0.00 0.00 92 1013.4
20260903014513 56 163 0.0 0.0 0.00 0.00 0.00 92 1013.4
20260903013012 56 163 0.0 0.0 0.00 0.00 0.00 92 1013.4
20260903011509 57 164 0.0 0.0 0.00 0.00 0.00 91 1013.4
20260903010008 57 162 0.0 0.0 0.00 0.00 0.00 91 1013.5
20260903004504 58 162 0.0 0.0 0.00 0.00 0.00 90 1013.6
20260903003001 58 162 0.0 0.0 0.00 0.00 0.00 90 1013.5
20260903001504 59 162 0.0 0.0 0.00 0.00 0.00 90 1013.6
20260903000109 59 162 0.0 0.0 0.00 0.00 0.00 90 1013.6
20260902234600 59 162 0.0 0.0 0.00 0.00 0.00 89 1013.7
20260902233103 59 162 0.0 0.0 0.00 0.00 0.00 89 1013.8
20260902231559 59 162 0.0 0.0 0.00 0.00 0.00 89 1013.8
20260902230057 60 162 0.0 0.0 0.00 0.00 0.00 89 1013.9
20260902224556 60 162 0.0 0.0 0.00 0.00 0.00 89 1013.8
20260902223056 60 160 0.0 0.0 0.00 0.00 0.00 89 1013.9
20260902221611 60 159 0.0 0.0 0.00 0.00 0.00 89 1014.0
20260902220101 60 159 0.0 0.0 0.00 0.00 0.00 89 1014.0
20260902214553 59 159 0.0 0.0 0.00 0.00 0.00 90 1014.0
20260902213054 59 159 0.0 0.0 0.00 0.00 0.00 90 1014.1
20260902211557 59 159 0.0 0.0 0.00 0.00 0.00 90 1014.2
20260902210049 59 159 0.0 0.0 0.00 0.00 0.00 89 1014.3
20260902204607 59 159 0.0 0.0 0.00 0.00 0.00 88 1014.3
20260902203049 59 159 0.0 0.0 0.00 0.00 0.00 88 1014.4
20260902201546 59 159 0.0 0.0 0.00 0.00 0.00 88 1014.3
20260902200043 59 159 0.0 0.0 0.00 0.00 0.00 87 1014.4
20260902194554 60 159 0.0 0.0 0.00 0.00 0.00 86 1014.5
20260902193044 60 159 0.0 0.0 0.00 0.00 0.00 86 1014.5
20260902191551 60 159 0.0 0.0 0.00 0.00 0.00 87 1014.7
20260902190039 60 159 0.0 0.0 0.00 0.00 0.00 86 1014.7
20260902184537 60 159 0.0 0.0 0.00 0.00 0.00 86 1014.8
20260902183048 60 159 0.0 0.0 0.00 0.00 0.00 85 1014.8
20260902181535 61 159 0.0 0.0 0.00 0.00 0.00 85 1014.9
20260902180035 61 159 0.0 0.0 0.00 0.00 0.00 85 1015.0
20260902174534 61 159 0.0 0.0 0.00 0.00 0.00 84 1015.1
20260902173049 61 159 0.0 0.0 0.00 0.00 0.00 84 1015.1
20260902171530 61 159 0.0 0.0 0.00 0.00 0.00 83 1015.3
20260902170031 62 159 0.0 0.0 0.00 0.00 0.00 83 1015.4
20260902164534 62 159 0.0 0.0 0.00 0.00 0.00 82 1015.5
20260902163029 62 159 0.0 0.0 0.00 0.00 0.00 82 1015.5